Station Historical Data
Daily Summary for July 30, 2017 Units:  Metric    English   Both
« Previous Day
Next Day »
Daily Weekly Monthly Yearly Custom
  High: Low: Average:
Temperature: 29.9 °C 15.7 °C 22.8 °C
Dew Point: 20 °C 13.9 °C 16.9 °C
Humidity: 90% 42% 71%
Wind Speed: 14.5km/h 0km/h 3.1km/h
Wind Gust: 17.7km/h - -
Wind- - WSW
Pressure: 1018.8 hPa 1015.8 hPa -
Precipitation: 0 mm    
Historical Graphs
 
 
Tabular Data for July 30, 2017
Time Temperature Dew Point Pressure Wind Wind Speed Wind Gust Humidity Rainfall Rate (Hourly)
00:04 20.5 °C 15.3 °C 1015.8 hPa NNW 3.2 km/h 4.8 km/h 72% 0 mm
00:09 20.4 °C 15.2 °C 1015.8 hPa Calm   4.8 km/h 72% 0 mm
00:14 20.4 °C 15.2 °C 1015.8 hPa Calm   4.8 km/h 72% 0 mm
00:19 20.3 °C 15.1 °C 1015.8 hPa Calm   4.8 km/h 72% 0 mm
00:24 20.2 °C 15 °C 1015.8 hPa Calm   1.6 km/h 72% 0 mm
00:29 20.1 °C 15.1 °C 1015.8 hPa Calm     73% 0 mm
00:34 20 °C 15 °C 1015.8 hPa Calm     73% 0 mm
00:39 19.9 °C 15.2 °C 1015.8 hPa Calm     74% 0 mm
00:44 19.8 °C 15 °C 1015.8 hPa Calm     74% 0 mm
00:49 19.6 °C 15.1 °C 1015.8 hPa Calm     75% 0 mm
00:54 19.4 °C 14.8 °C 1015.8 hPa Calm     75% 0 mm
00:59 19.2 °C 14.8 °C 1015.8 hPa Calm     76% 0 mm
01:05 18.9 °C 14.6 °C 1015.8 hPa Calm     76% 0 mm
01:10 18.8 °C 14.7 °C 1015.8 hPa Calm     77% 0 mm
01:15 18.6 °C 14.5 °C 1015.8 hPa Calm     77% 0 mm
01:20 18.6 °C 14.4 °C 1015.8 hPa Calm     77% 0 mm
01:25 18.4 °C 14.5 °C 1015.8 hPa Calm     78% 0 mm
01:30 18.3 °C 14.4 °C 1015.8 hPa Calm     78% 0 mm
01:35 18.2 °C 14.3 °C 1015.8 hPa Calm     78% 0 mm
01:40 18 °C 14.3 °C 1015.8 hPa Calm     79% 0 mm
01:45 17.9 °C 14.4 °C 1015.8 hPa Calm     80% 0 mm
01:50 17.9 °C 14.4 °C 1015.8 hPa Calm     80% 0 mm
01:55 17.8 °C 14.3 °C 1015.8 hPa Calm     80% 0 mm
02:00 17.7 °C 14.4 °C 1015.8 hPa Calm     81% 0 mm
02:05 17.7 °C 14.4 °C 1015.8 hPa Calm     81% 0 mm
02:10 17.6 °C 14.3 °C 1015.8 hPa Calm     81% 0 mm
02:15 17.6 °C 14.3 °C 1015.8 hPa Calm     81% 0 mm
02:20 17.7 °C 14.6 °C 1015.8 hPa Calm     82% 0 mm
02:25 17.7 °C 14.6 °C 1015.8 hPa Calm     82% 0 mm
02:30 17.6 °C 14.3 °C 1015.8 hPa Calm     81% 0 mm
02:35 17.5 °C 14.4 °C 1015.8 hPa Calm     82% 0 mm
02:40 17.4 °C 14.4 °C 1015.8 hPa Calm     83% 0 mm
02:45 17.2 °C 14.3 °C 1015.8 hPa Calm     83% 0 mm
02:50 17.2 °C 14.4 °C 1015.8 hPa Calm     84% 0 mm
02:55 17.1 °C 14.3 °C 1015.8 hPa Calm     84% 0 mm
03:00 17 °C 14.3 °C 1015.8 hPa Calm     84% 0 mm
03:05 16.9 °C 14.2 °C 1015.8 hPa Calm     84% 0 mm
03:15 16.8 °C 14.3 °C 1015.8 hPa Calm     85% 0 mm
03:20 16.8 °C 14.3 °C 1015.8 hPa Calm     85% 0 mm
03:25 16.8 °C 14.3 °C 1015.8 hPa Calm     85% 0 mm
03:30 16.8 °C 14.3 °C 1015.8 hPa Calm     85% 0 mm
03:35 16.7 °C 14.2 °C 1015.8 hPa Calm     85% 0 mm
03:40 16.7 °C 14.1 °C 1015.8 hPa Calm     85% 0 mm
03:45 16.6 °C 14.3 °C 1015.8 hPa Calm     86% 0 mm
03:50 16.6 °C 14.2 °C 1015.8 hPa Calm     86% 0 mm
03:55 16.5 °C 14.2 °C 1015.8 hPa Calm     86% 0 mm
04:00 16.4 °C 14.1 °C 1015.8 hPa Calm     86% 0 mm
04:05 16.4 °C 14.1 °C 1015.8 hPa Calm     86% 0 mm
04:10 16.3 °C 14 °C 1015.8 hPa Calm     86% 0 mm
04:15 16.3 °C 14 °C 1015.8 hPa Calm     86% 0 mm
04:20 16.3 °C 14 °C 1016.1 hPa Calm     86% 0 mm
04:25 16.4 °C 14.1 °C 1016.1 hPa Calm     86% 0 mm
04:30 16.4 °C 14.1 °C 1016.1 hPa Calm     86% 0 mm
04:35 16.3 °C 14 °C 1016.1 hPa Calm     86% 0 mm
04:40 16.3 °C 13.9 °C 1016.1 hPa Calm     86% 0 mm
04:45 16.3 °C 14.2 °C 1016.1 hPa Calm     87% 0 mm
04:50 16.3 °C 14.2 °C 1016.1 hPa Calm     87% 0 mm
04:55 16.3 °C 14.1 °C 1016.1 hPa Calm     87% 0 mm
05:00 16.3 °C 14.3 °C 1016.1 hPa Calm     88% 0 mm
05:05 16.3 °C 14.1 °C 1016.1 hPa Calm     87% 0 mm
05:10 16.1 °C 13.9 °C 1016.1 hPa Calm     87% 0 mm
05:15 16.1 °C 14.1 °C 1016.5 hPa Calm     88% 0 mm
05:20 16 °C 14 °C 1016.5 hPa Calm     88% 0 mm
05:25 15.9 °C 13.9 °C 1016.5 hPa Calm     88% 0 mm
05:30 16 °C 14.2 °C 1016.5 hPa Calm     89% 0 mm
05:35 15.9 °C 13.9 °C 1016.8 hPa Calm     88% 0 mm
05:40 15.9 °C 14.1 °C 1016.8 hPa Calm     89% 0 mm
05:45 15.8 °C 14 °C 1016.8 hPa Calm     89% 0 mm
05:55 15.8 °C 13.9 °C 1016.8 hPa Calm     89% 0 mm
06:00 15.7 °C 13.9 °C 1016.8 hPa Calm     89% 0 mm
06:05 15.7 °C 13.9 °C 1016.8 hPa Calm     89% 0 mm
06:09 15.7 °C 13.9 °C 1016.8 hPa Calm     89% 0 mm
06:15 15.7 °C 14.1 °C 1016.8 hPa Calm     90% 0 mm
06:20 15.8 °C 13.9 °C 1016.8 hPa Calm     89% 0 mm
06:25 15.7 °C 13.9 °C 1016.8 hPa Calm     89% 0 mm
06:30 15.8 °C 13.9 °C 1016.8 hPa Calm     89% 0 mm
06:35 15.9 °C 14.3 °C 1016.8 hPa Calm     90% 0 mm
06:40 16 °C 14.2 °C 1016.8 hPa Calm     89% 0 mm
06:45 16.2 °C 14.3 °C 1016.8 hPa Calm     89% 0 mm
06:50 16.3 °C 14.5 °C 1017.2 hPa Calm     89% 0 mm
06:55 16.5 °C 14.7 °C 1017.2 hPa Calm     89% 0 mm
07:00 16.7 °C 14.7 °C 1017.2 hPa Calm     88% 0 mm
07:05 16.8 °C 14.8 °C 1017.2 hPa Calm     88% 0 mm
07:10 17.2 °C 15 °C 1017.2 hPa Calm     87% 0 mm
07:15 17.5 °C 15.3 °C 1017.2 hPa Calm     87% 0 mm
07:19 17.9 °C 15.5 °C 1017.2 hPa Calm     86% 0 mm
07:25 18.2 °C 15.4 °C 1017.5 hPa Calm     84% 0 mm
07:30 18.4 °C 15.6 °C 1017.2 hPa Calm     84% 0 mm
07:35 18.6 °C 15.7 °C 1017.5 hPa Calm     83% 0 mm
07:39 18.9 °C 15.9 °C 1017.5 hPa Calm     83% 0 mm
07:44 19.2 °C 16 °C 1017.5 hPa Calm     82% 0 mm
07:50 19.2 °C 15.8 °C 1017.5 hPa Calm     81% 0 mm
07:55 19.2 °C 15.8 °C 1017.5 hPa Calm     81% 0 mm
08:00 19.2 °C 16 °C 1017.8 hPa Calm     82% 0 mm
08:05 19.2 °C 15.8 °C 1017.8 hPa Calm     81% 0 mm
08:10 19.2 °C 16 °C 1017.8 hPa Calm     82% 0 mm
08:14 19.3 °C 15.9 °C 1017.8 hPa Calm   6.4 km/h 81% 0 mm
08:19 19.3 °C 16 °C 1017.8 hPa Calm   6.4 km/h 81% 0 mm
08:25 19.4 °C 16.1 °C 1017.8 hPa SSW 1.6 km/h 3.2 km/h 81% 0 mm
08:29 19.7 °C 16.5 °C 1017.8 hPa Calm   1.6 km/h 82% 0 mm
08:35 20.2 °C 16.6 °C 1017.8 hPa South 1.6 km/h 4.8 km/h 80% 0 mm
08:39 20.4 °C 16.7 °C 1018.2 hPa South 4.8 km/h 4.8 km/h 79% 0 mm
08:45 20.5 °C 16.3 °C 1018.2 hPa Calm   4.8 km/h 77% 0 mm
08:50 20.6 °C 16.4 °C 1018.2 hPa SW 1.6 km/h 6.4 km/h 77% 0 mm
08:55 20.7 °C 16.7 °C 1018.2 hPa SW 1.6 km/h 6.4 km/h 78% 0 mm
09:00 20.9 °C 16.7 °C 1018.2 hPa SSW 1.6 km/h 6.4 km/h 77% 0 mm
09:05 21.1 °C 16.7 °C 1018.2 hPa SSW 1.6 km/h 6.4 km/h 76% 0 mm
09:10 21.3 °C 16.9 °C 1018.2 hPa SW 4.8 km/h 6.4 km/h 76% 0 mm
09:15 21.6 °C 16.9 °C 1018.2 hPa SW 1.6 km/h 6.4 km/h 75% 0 mm
09:20 22.1 °C 17.3 °C 1018.2 hPa SW 3.2 km/h 6.4 km/h 74% 0 mm
09:25 22.3 °C 16.8 °C 1017.8 hPa SSW 3.2 km/h 6.4 km/h 71% 0 mm
09:29 22.6 °C 17.1 °C 1017.8 hPa SSW 3.2 km/h 6.4 km/h 71% 0 mm
09:34 22.4 °C 16.9 °C 1017.8 hPa SW 3.2 km/h 6.4 km/h 71% 0 mm
09:40 22.7 °C 16.7 °C 1017.8 hPa Calm   8 km/h 69% 0 mm
09:45 22.9 °C 17.1 °C 1017.8 hPa Calm   6.4 km/h 70% 0 mm
09:49 22.8 °C 16.8 °C 1017.8 hPa SW 1.6 km/h 8 km/h 69% 0 mm
09:54 23.1 °C 17.6 °C 1017.8 hPa SSW 3.2 km/h 8 km/h 71% 0 mm
10:00 23.4 °C 17.2 °C 1017.8 hPa SSW 3.2 km/h 8 km/h 68% 0 mm
10:05 23.8 °C 17.5 °C 1017.8 hPa SSW 1.6 km/h 6.4 km/h 68% 0 mm
10:10 23.8 °C 17.1 °C 1017.8 hPa SW 3.2 km/h 8 km/h 66% 0 mm
10:15 23.9 °C 17.4 °C 1017.8 hPa WSW 1.6 km/h 6.4 km/h 67% 0 mm
10:20 24.5 °C 18.4 °C 1017.8 hPa SSW 3.2 km/h 6.4 km/h 69% 0 mm
10:25 24.4 °C 17.1 °C 1018.2 hPa SW 3.2 km/h 6.4 km/h 64% 0 mm
10:29 24.6 °C 17.6 °C 1018.2 hPa WNW 4.8 km/h 8 km/h 65% 0 mm
10:35 24.6 °C 17.6 °C 1018.2 hPa SSE 4.8 km/h 8 km/h 65% 0 mm
10:39 24.7 °C 17.7 °C 1018.2 hPa SSW 1.6 km/h 8 km/h 65% 0 mm
10:44 24.8 °C 17.5 °C 1018.2 hPa SW 8 km/h 9.7 km/h 64% 0 mm
10:49 24.9 °C 17.6 °C 1017.8 hPa SW 4.8 km/h 9.7 km/h 64% 0 mm
10:55 25.2 °C 18.4 °C 1018.2 hPa WNW 1.6 km/h 9.7 km/h 66% 0 mm
11:00 25.2 °C 17.6 °C 1018.2 hPa West 6.4 km/h 11.3 km/h 63% 0 mm
11:05 25.7 °C 18.1 °C 1018.2 hPa NW 6.4 km/h 9.7 km/h 63% 0 mm
11:10 26 °C 18.2 °C 1018.2 hPa WNW 4.8 km/h 12.9 km/h 62% 0 mm
11:15 26.1 °C 18.8 °C 1018.2 hPa WSW 4.8 km/h 9.7 km/h 64% 0 mm
11:19 26.5 °C 18.9 °C 1018.2 hPa West 3.2 km/h 9.7 km/h 63% 0 mm
11:24 26.7 °C 18.3 °C 1018.2 hPa West 3.2 km/h 12.9 km/h 60% 0 mm
11:29 26.2 °C 17.8 °C 1018.2 hPa SW 9.7 km/h 12.9 km/h 60% 0 mm
11:34 25.8 °C 17.7 °C 1018.2 hPa WNW 4.8 km/h 9.7 km/h 61% 0 mm
11:39 26.3 °C 17.7 °C 1018.2 hPa NW 6.4 km/h 11.3 km/h 59% 0 mm
11:44 26.6 °C 18.2 °C 1018.2 hPa West 6.4 km/h 11.3 km/h 60% 0 mm
11:49 26.7 °C 17.7 °C 1018.2 hPa West 6.4 km/h 11.3 km/h 58% 0 mm
11:55 27 °C 18.6 °C 1018.2 hPa West 6.4 km/h 11.3 km/h 60% 0 mm
12:00 27.2 °C 18.2 °C 1018.2 hPa West 4.8 km/h 11.3 km/h 58% 0 mm
12:05 27.1 °C 18.4 °C 1018.2 hPa WNW 1.6 km/h 9.7 km/h 59% 0 mm
12:10 27.1 °C 18.7 °C 1018.2 hPa WNW 9.7 km/h 12.9 km/h 60% 0 mm
12:14 27.3 °C 18.1 °C 1018.2 hPa WNW 4.8 km/h 12.9 km/h 57% 0 mm
12:19 27.3 °C 18 °C 1018.2 hPa WNW 4.8 km/h 9.7 km/h 57% 0 mm
12:24 27.2 °C 18.2 °C 1018.2 hPa NW 1.6 km/h 8 km/h 58% 0 mm
12:29 27.2 °C 18.5 °C 1018.2 hPa West 6.4 km/h 11.3 km/h 59% 0 mm
12:34 27.6 °C 18.6 °C 1018.2 hPa West 4.8 km/h 9.7 km/h 58% 0 mm
12:39 27.5 °C 18.5 °C 1018.2 hPa WSW 8 km/h 11.3 km/h 58% 0 mm
12:44 27.4 °C 18.9 °C 1018.2 hPa SW 6.4 km/h 12.9 km/h 60% 0 mm
12:49 27.7 °C 19.5 °C 1018.2 hPa WSW 6.4 km/h 12.9 km/h 61% 0 mm
12:55 27.9 °C 19.2 °C 1018.2 hPa West 6.4 km/h 12.9 km/h 59% 0 mm
12:59 27.7 °C 18.7 °C 1018.2 hPa SW 8 km/h 12.9 km/h 58% 0 mm
13:05 27.9 °C 19.1 °C 1018.2 hPa WSW 14.5 km/h 14.5 km/h 59% 0 mm
13:09 27.6 °C 19.7 °C 1017.8 hPa WSW 8 km/h 16.1 km/h 62% 0 mm
13:14 27.8 °C 19.1 °C 1017.8 hPa SW 8 km/h 17.7 km/h 59% 0 mm
13:19 27.6 °C 18.6 °C 1018.2 hPa SW 9.7 km/h 17.7 km/h 58% 0 mm
13:24 27.6 °C 18.9 °C 1017.8 hPa WSW 4.8 km/h 16.1 km/h 59% 0 mm
13:29 28.2 °C 19.7 °C 1017.8 hPa WSW 4.8 km/h 12.9 km/h 60% 0 mm
13:35 28.3 °C 18.9 °C 1017.8 hPa WSW 6.4 km/h 16.1 km/h 57% 0 mm
13:39 27.7 °C 18.9 °C 1017.8 hPa WSW 8 km/h 16.1 km/h 59% 0 mm
13:44 27.8 °C 19.6 °C 1018.2 hPa WSW 8 km/h 14.5 km/h 61% 0 mm
13:49 27.8 °C 19.1 °C 1018.2 hPa WSW 11.3 km/h 16.1 km/h 59% 0 mm
13:54 27.8 °C 19.1 °C 1017.8 hPa SW 6.4 km/h 14.5 km/h 59% 0 mm
13:59 27.8 °C 18.6 °C 1018.2 hPa WSW 11.3 km/h 16.1 km/h 57% 0 mm
14:04 27.8 °C 19.1 °C 1017.8 hPa SW 6.4 km/h 16.1 km/h 59% 0 mm
14:09 28.1 °C 19.6 °C 1017.8 hPa SW 8 km/h 16.1 km/h 60% 0 mm
14:14 28.1 °C 19 °C 1017.8 hPa SW 8 km/h 14.5 km/h 58% 0 mm
14:19 28.1 °C 18.8 °C 1017.8 hPa SW 8 km/h 14.5 km/h 57% 0 mm
14:24 28.1 °C 19.3 °C 1017.8 hPa SW 9.7 km/h 16.1 km/h 59% 0 mm
14:29 28.2 °C 19.1 °C 1017.8 hPa SW 8 km/h 16.1 km/h 58% 0 mm
14:35 28.3 °C 19 °C 1017.8 hPa WSW 6.4 km/h 16.1 km/h 57% 0 mm
14:39 28.2 °C 19.2 °C 1017.8 hPa SW 11.3 km/h 11.3 km/h 58% 0 mm
14:44 28.3 °C 19.8 °C 1017.8 hPa SW 4.8 km/h 12.9 km/h 60% 0 mm
14:49 28.5 °C 19.4 °C 1017.8 hPa West 4.8 km/h 11.3 km/h 58% 0 mm
14:54 28.5 °C 20 °C 1017.8 hPa WNW 4.8 km/h 14.5 km/h 60% 0 mm
14:59 28.7 °C 19 °C 1017.8 hPa SW 9.7 km/h 9.7 km/h 56% 0 mm
15:04 28.8 °C 18.8 °C 1017.8 hPa SW 11.3 km/h 14.5 km/h 55% 0 mm
15:09 29 °C 18.4 °C 1017.8 hPa NNW 6.4 km/h 11.3 km/h 53% 0 mm
15:14 29.5 °C 17.7 °C 1017.8 hPa NW 4.8 km/h 12.9 km/h 49% 0 mm
15:19 29.7 °C 17.8 °C 1017.8 hPa NW 6.4 km/h 12.9 km/h 49% 0 mm
15:24 29.7 °C 17.2 °C 1017.8 hPa NW 6.4 km/h 14.5 km/h 47% 0 mm
15:29 29.9 °C 17 °C 1017.8 hPa NW 4.8 km/h 14.5 km/h 46% 0 mm
15:35 29.5 °C 17.3 °C 1017.8 hPa NNW 6.4 km/h 12.9 km/h 48% 0 mm
15:40 29.4 °C 16.6 °C 1017.8 hPa North 6.4 km/h 12.9 km/h 46% 0 mm
15:44 29.4 °C 17.3 °C 1017.8 hPa North 4.8 km/h 16.1 km/h 48% 0 mm
15:49 29.7 °C 17.8 °C 1017.8 hPa NW 3.2 km/h 14.5 km/h 49% 0 mm
15:54 29.8 °C 17.7 °C 1017.8 hPa WNW 3.2 km/h 12.9 km/h 48% 0 mm
15:59 29.8 °C 16.9 °C 1017.8 hPa NNW 8 km/h 14.5 km/h 46% 0 mm
16:04 29.7 °C 16.2 °C 1017.8 hPa NW 4.8 km/h 16.1 km/h 44% 0 mm
16:09 29.8 °C 16.9 °C 1017.5 hPa WNW 6.4 km/h 12.9 km/h 46% 0 mm
16:14 29.8 °C 16.3 °C 1017.8 hPa NW 6.4 km/h 14.5 km/h 44% 0 mm
16:19 29.7 °C 16.8 °C 1017.5 hPa NW 6.4 km/h 14.5 km/h 46% 0 mm
16:24 29.9 °C 17.1 °C 1017.5 hPa NNW 3.2 km/h 12.9 km/h 46% 0 mm
16:30 29.7 °C 16.2 °C 1017.5 hPa North 3.2 km/h 12.9 km/h 44% 0 mm
16:34 29.8 °C 16.3 °C 1017.5 hPa NNW 3.2 km/h 12.9 km/h 44% 0 mm
16:39 29.8 °C 15.9 °C 1017.5 hPa NNW 4.8 km/h 9.7 km/h 43% 0 mm
16:45 29.2 °C 15.7 °C 1017.5 hPa NNW 3.2 km/h 14.5 km/h 44% 0 mm
16:49 29.2 °C 16.1 °C 1017.5 hPa NNW 4.8 km/h 14.5 km/h 45% 0 mm
16:54 29.6 °C 16.4 °C 1017.5 hPa West 3.2 km/h 9.7 km/h 45% 0 mm
16:59 29.6 °C 16.4 °C 1017.5 hPa West 9.7 km/h 11.3 km/h 45% 0 mm
17:04 29.9 °C 16.7 °C 1017.5 hPa WSW 6.4 km/h 11.3 km/h 45% 0 mm
17:09 29.8 °C 16.9 °C 1017.5 hPa NNW 4.8 km/h 11.3 km/h 46% 0 mm
17:14 29.6 °C 16.1 °C 1017.5 hPa NW 4.8 km/h 14.5 km/h 44% 0 mm
17:19 29.3 °C 15.4 °C 1017.5 hPa NW 6.4 km/h 14.5 km/h 43% 0 mm
17:24 29.4 °C 15.6 °C 1017.5 hPa NW 6.4 km/h 12.9 km/h 43% 0 mm
17:29 29.3 °C 16.1 °C 1017.5 hPa NW 6.4 km/h 14.5 km/h 45% 0 mm
17:35 29.3 °C 15.1 °C 1017.5 hPa NW 6.4 km/h 14.5 km/h 42% 0 mm
17:39 29.3 °C 15.4 °C 1017.5 hPa SW 12.9 km/h 14.5 km/h 43% 0 mm
17:45 28.3 °C 18.7 °C 1017.5 hPa WSW 3.2 km/h 16.1 km/h 56% 0 mm
17:49 27.7 °C 19 °C 1017.5 hPa WSW 8 km/h 16.1 km/h 59% 0 mm
17:54 27.7 °C 18.9 °C 1017.5 hPa WSW 6.4 km/h 14.5 km/h 59% 0 mm
17:59 27.4 °C 19 °C 1017.5 hPa West 6.4 km/h 16.1 km/h 60% 0 mm
18:04 27.2 °C 19.5 °C 1017.5 hPa West 6.4 km/h 11.3 km/h 63% 0 mm
18:09 26.9 °C 19.1 °C 1017.5 hPa WSW 3.2 km/h 16.1 km/h 62% 0 mm
18:14 26.8 °C 19.2 °C 1017.5 hPa West 8 km/h 14.5 km/h 63% 0 mm
18:19 26.6 °C 19.2 °C 1017.5 hPa WSW 6.4 km/h 14.5 km/h 64% 0 mm
18:24 26.3 °C 19.2 °C 1017.5 hPa WSW 6.4 km/h 14.5 km/h 65% 0 mm
18:29 26.2 °C 19.4 °C 1017.5 hPa SW 6.4 km/h 14.5 km/h 66% 0 mm
18:34 25.8 °C 19.2 °C 1017.5 hPa SSW 4.8 km/h 12.9 km/h 67% 0 mm
18:40 26 °C 19.9 °C 1017.5 hPa WSW 3.2 km/h 8 km/h 69% 0 mm
18:44 26 °C 19.6 °C 1017.5 hPa South 6.4 km/h 12.9 km/h 68% 0 mm
18:49 25.8 °C 19.2 °C 1017.5 hPa WSW 6.4 km/h 16.1 km/h 67% 0 mm
18:54 25.6 °C 19.2 °C 1017.5 hPa WSW 8 km/h 16.1 km/h 68% 0 mm
18:59 25.4 °C 19.3 °C 1017.5 hPa WSW 8 km/h 16.1 km/h 69% 0 mm
19:04 25.4 °C 19.3 °C 1017.5 hPa West 8 km/h 12.9 km/h 69% 0 mm
19:09 25.3 °C 19.2 °C 1017.5 hPa SW 6.4 km/h 12.9 km/h 69% 0 mm
19:14 25.3 °C 19.2 °C 1017.8 hPa SW 6.4 km/h 12.9 km/h 69% 0 mm
19:19 25.4 °C 19.3 °C 1017.5 hPa WSW 3.2 km/h 11.3 km/h 69% 0 mm
19:24 25.3 °C 19.4 °C 1017.8 hPa West 6.4 km/h 12.9 km/h 70% 0 mm
19:29 25.2 °C 19.3 °C 1017.8 hPa West 4.8 km/h 12.9 km/h 70% 0 mm
19:34 25.2 °C 19.6 °C 1017.8 hPa WSW 3.2 km/h 12.9 km/h 71% 0 mm
19:39 24.9 °C 19.6 °C 1017.8 hPa SSW 4.8 km/h 14.5 km/h 72% 0 mm
19:44 24.8 °C 19.4 °C 1017.8 hPa WSW 6.4 km/h 11.3 km/h 72% 0 mm
19:49 24.7 °C 19.3 °C 1017.8 hPa WSW 6.4 km/h 14.5 km/h 72% 0 mm
19:54 24.6 °C 19.4 °C 1017.8 hPa WSW 4.8 km/h 14.5 km/h 73% 0 mm
19:59 24.5 °C 19.3 °C 1017.8 hPa WSW 4.8 km/h 11.3 km/h 73% 0 mm
20:04 24.3 °C 19.4 °C 1017.8 hPa SW 4.8 km/h 11.3 km/h 74% 0 mm
20:09 24.2 °C 19.2 °C 1017.8 hPa SW 4.8 km/h 11.3 km/h 74% 0 mm
20:14 24 °C 19.3 °C 1017.8 hPa WSW 4.8 km/h 9.7 km/h 75% 0 mm
20:19 23.8 °C 19.1 °C 1017.8 hPa SW 4.8 km/h 9.7 km/h 75% 0 mm
20:24 23.7 °C 19.2 °C 1017.8 hPa WSW 3.2 km/h 11.3 km/h 76% 0 mm
20:29 23.6 °C 19.1 °C 1017.8 hPa SW 1.6 km/h 6.4 km/h 76% 0 mm
20:34 23.5 °C 19.2 °C 1017.8 hPa WSW 3.2 km/h 6.4 km/h 77% 0 mm
20:39 23.4 °C 19.1 °C 1018.2 hPa WSW 6.4 km/h 8 km/h 77% 0 mm
20:44 23.3 °C 19.3 °C 1018.2 hPa WSW 1.6 km/h 8 km/h 78% 0 mm
20:49 23.3 °C 19.2 °C 1017.8 hPa WSW 4.8 km/h 9.7 km/h 78% 0 mm
20:54 23.2 °C 19.2 °C 1017.8 hPa WSW 4.8 km/h 9.7 km/h 78% 0 mm
20:59 23.2 °C 19.1 °C 1018.2 hPa WSW 3.2 km/h 8 km/h 78% 0 mm
21:04 23.2 °C 19.3 °C 1017.8 hPa WSW 3.2 km/h 8 km/h 79% 0 mm
21:09 23.1 °C 19.2 °C 1018.2 hPa SW 3.2 km/h 9.7 km/h 79% 0 mm
21:14 22.9 °C 19.3 °C 1018.2 hPa SW 4.8 km/h 8 km/h 80% 0 mm
21:19 22.9 °C 19.4 °C 1018.2 hPa SW 3.2 km/h 8 km/h 81% 0 mm
21:24 22.9 °C 19.4 °C 1018.2 hPa SW 3.2 km/h 6.4 km/h 81% 0 mm
21:29 22.8 °C 19.6 °C 1018.2 hPa Calm   6.4 km/h 82% 0 mm
21:34 22.8 °C 19.7 °C 1018.2 hPa SW 3.2 km/h 3.2 km/h 83% 0 mm
21:39 22.7 °C 19.6 °C 1018.2 hPa SW 1.6 km/h 6.4 km/h 83% 0 mm
21:44 22.7 °C 19.6 °C 1018.2 hPa WSW 4.8 km/h 8 km/h 83% 0 mm
21:49 22.6 °C 19.8 °C 1018.2 hPa SW 1.6 km/h 8 km/h 84% 0 mm
21:54 22.6 °C 19.8 °C 1018.2 hPa WSW 1.6 km/h 6.4 km/h 84% 0 mm
21:59 22.6 °C 19.8 °C 1018.2 hPa WSW 1.6 km/h 8 km/h 84% 0 mm
22:04 22.6 °C 19.7 °C 1018.2 hPa WSW 1.6 km/h 8 km/h 84% 0 mm
22:09 22.5 °C 19.7 °C 1018.5 hPa Calm   4.8 km/h 84% 0 mm
22:14 22.4 °C 19.7 °C 1018.5 hPa Calm   4.8 km/h 85% 0 mm
22:19 22.3 °C 19.7 °C 1018.2 hPa WSW 1.6 km/h 3.2 km/h 85% 0 mm
22:24 22.3 °C 19.4 °C 1018.5 hPa Calm   3.2 km/h 84% 0 mm
22:29 22.3 °C 18.7 °C 1018.5 hPa Calm   9.7 km/h 80% 0 mm
22:34 22.5 °C 18.7 °C 1018.5 hPa WSW 1.6 km/h 4.8 km/h 79% 0 mm
22:39 22.5 °C 18.7 °C 1018.5 hPa Calm   3.2 km/h 79% 0 mm
22:44 22.4 °C 18.8 °C 1018.5 hPa Calm     80% 0 mm
22:49 22.3 °C 19.1 °C 1018.5 hPa Calm     82% 0 mm
22:54 22.2 °C 19.2 °C 1018.5 hPa Calm     83% 0 mm
22:59 21.9 °C 19.1 °C 1018.5 hPa WSW 3.2 km/h 4.8 km/h 84% 0 mm
23:04 21.9 °C 18.7 °C 1018.5 hPa Calm   4.8 km/h 82% 0 mm
23:09 21.8 °C 18.2 °C 1018.5 hPa West 1.6 km/h 6.4 km/h 80% 0 mm
23:14 21.9 °C 17.7 °C 1018.5 hPa Calm   6.4 km/h 77% 0 mm
23:19 21.9 °C 16.9 °C 1018.5 hPa Calm     73% 0 mm
23:24 22.1 °C 16.6 °C 1018.5 hPa Calm     71% 0 mm
23:29 21.9 °C 16.2 °C 1018.5 hPa Calm     70% 0 mm
23:34 21.8 °C 16.5 °C 1018.8 hPa Calm     72% 0 mm
23:39 21.4 °C 16.4 °C 1018.8 hPa WNW 1.6 km/h 3.2 km/h 73% 0 mm
23:44 21.3 °C 16.1 °C 1018.5 hPa Calm   1.6 km/h 72% 0 mm
23:49 21.2 °C 15.9 °C 1018.8 hPa Calm   1.6 km/h 72% 0 mm
23:54 21 °C 15.3 °C 1018.5 hPa Calm   1.6 km/h 70% 0 mm
23:59 20.9 °C 15.3 °C 1018.5 hPa Calm   1.6 km/h 70% 0 mm
Buffalo, New York, USA
Compliments of Weather Underground - 2.5 mb